Flag for Switzerland Weather past 2 weeks in Oftringen, Aargau, Switzerland

Now
61 °F

Cool.


Feels Like: 61 °F
Forecast: 58 / 75 °F
Wind: 5 mph from Southwest

Location: Wynau

Current Time: Jul 30, 2014 at 11:43:40 AM

Latest Report: Jul 30, 2014 at 11:00 AM


Visibility: N/A

Pressure: 29.87 "Hg

Humidity: 94%

Dew point: 59 °F

Location of OftringenLocation

Historic Weather in Oftringen — Graph

°F

Oftringen temperature yesterday

Maximum temperature yesterday: 67 °F (at 4:00 PM)
Minimum temperature yesterday: 59 °F (at 4:00 AM)
Average temperature yesterday: 61 °F

Past Weeks' High & Low Weather Summary

 TemperatureHumidityPressure
High88 °F (Jul 18, 5:00 PM)100% (Jul 23, 1:00 AM)30.22 "Hg (Jul 23, 1:00 AM)
Low53 °F (Jul 16, 6:00 AM)27% (Jul 18, 7:00 PM)29.78 "Hg (Jul 28, 3:00 PM)
Average66 °F81%29.97 "Hg
* Reported Jul 15 10:00 AM — Jul 30 10:00 AM, Oftringen, Weather by CustomWeather, © 2014

Note: Actual official high and low records may vary slightly from our data, if they occured in-between our weather recording intervals... More about our weather records

Advertising

Oftringen weather history for previous 24 hours

 ConditionsComfort  
Time TempWeatherWind HumidityBarometerVisibility
10:00 AM
Jul 30
60 °FCool.3 mph96%29.87 "HgN/A
9:00 AM60 °FCool.3 mph96%29.86 "HgN/A
8:00 AM60 °FCool.2 mph97%29.85 "HgN/A
7:00 AM60 °FCool.3 mph98%29.84 "HgN/A
6:00 AM60 °FCool.2 mph94%29.84 "HgN/A
5:00 AM60 °FCool.3 mph93%29.83 "HgN/A
4:00 AM60 °FCool.3 mph93%29.83 "HgN/A
3:00 AM60 °FCool.3 mph94%29.85 "HgN/A
2:00 AM60 °FCool.3 mph94%29.85 "HgN/A
1:00 AM61 °FCool.3 mph92%29.85 "HgN/A
12:00 AM62 °FCool.6 mph88%29.85 "HgN/A
11:00 PM
Jul 29
62 °FCool.1 mph96%29.85 "HgN/A
10:00 PM61 °FCool.1 mph97%29.84 "HgN/A
9:00 PM62 °FCool.2 mph94%29.82 "HgN/A
8:00 PM64 °FMild.2 mph93%29.81 "HgN/A
7:00 PM64 °FMild.1 mph92%29.80 "HgN/A
6:00 PM67 °FMild.2 mph77%29.79 "HgN/A
5:00 PM67 °FMild.2 mph73%29.79 "HgN/A
4:00 PM67 °FMild.2 mph80%29.79 "HgN/A
3:00 PM63 °FMild.5 mph86%29.82 "HgN/A
2:00 PM65 °FMild.1 mph81%29.81 "HgN/A
1:00 PM63 °FMild.2 mph88%29.82 "HgN/A
12:00 PM61 °FCool.1 mph96%29.83 "HgN/A
11:00 AM60 °FCool.1 mph94%29.83 "HgN/A
Weather by CustomWeather, © 2014

See weather overviewHow to use our weather pages